Total_Precipitation_Accumulation
1.42 1.64 1.32 0.76 0.59 0.49 0.38 0.31 0.26 0.27 0.26 0.28 0.25 0.27 0.27 0.23 0.22 0.24 0.29 0.36 0.40 0.40 0.45 0.58 0.70 0.98 1.34 1.62 1.72 1.74 1.64 1.66 1.85 1.74 1.53 1.30 1.10 1.01 0.85 0.66 0.55 0.45 0.35 0.27
1.43 1.21 0.73 0.52 0.55 0.58 0.52 0.45 0.34 0.31 0.27 0.29 0.26 0.26 0.23 0.22 0.21 0.21 0.26 0.31 0.32 0.31 0.37 0.51 0.59 0.76 1.02 1.41 1.63 1.69 1.73 1.76 1.83 1.75 1.62 1.53 1.49 1.39 1.27 1.11 0.81 0.60 0.48 0.38
1.06 0.74 0.61 0.74 0.78 0.73 0.63 0.52 0.39 0.34 0.35 0.32 0.30 0.30 0.20 0.18 0.17 0.18 0.24 0.28 0.27 0.25 0.30 0.40 0.48 0.59 0.75 0.97 1.32 1.48 1.54 1.60 1.64 1.83 2.07 1.99 1.83 1.56 1.29 1.05 0.94 0.84 0.77 0.66
0.89 0.64 0.77 0.99 0.94 0.73 0.63 0.41 0.39 0.38 0.48 0.48 0.36 0.40 0.22 0.19 0.18 0.17 0.23 0.26 0.24 0.23 0.25 0.31 0.36 0.42 0.56 0.66 0.92 1.24 1.42 1.49 1.48 1.58 1.79 1.83 1.67 1.35 1.14 1.08 1.09 1.11 1.03 0.92
0.88 0.67 0.84 1.07 0.88 0.70 0.56 0.38 0.46 0.52 0.57 0.55 0.37 0.35 0.24 0.18 0.20 0.18 0.19 0.20 0.18 0.20 0.23 0.24 0.23 0.27 0.35 0.47 0.69 1.01 1.23 1.39 1.39 1.37 1.46 1.64 1.68 1.60 1.47 1.34 1.21 1.13 1.09 1.01
0.66 0.68 0.87 0.94 0.80 0.74 0.64 0.66 0.76 0.82 0.97 0.89 0.35 0.28 0.21 0.15 0.17 0.15 0.13 0.14 0.14 0.15 0.17 0.18 0.18 0.20 0.24 0.32 0.46 0.74 0.99 1.19 1.32 1.34 1.37 1.43 1.47 1.57 1.49 1.34 1.27 1.19 1.13 1.05
0.91 0.92 0.88 0.94 1.12 1.07 1.05 1.36 1.63 1.59 1.39 0.73 0.18 0.17 0.18 0.11 0.12 0.12 0.11 0.12 0.12 0.11 0.12 0.12 0.13 0.15 0.18 0.23 0.30 0.48 0.61 0.78 1.00 1.18 1.27 1.32 1.35 1.42 1.42 1.34 1.28 1.26 1.15 1.02
0.99 1.08 0.84 0.91 1.19 1.21 1.05 1.21 1.23 1.04 0.67 0.30 0.15 0.19 0.18 0.10 0.10 0.11 0.10 0.11 0.13 0.13 0.11 0.10 0.11 0.14 0.16 0.18 0.21 0.29 0.37 0.47 0.62 0.83 0.93 1.00 1.11 1.17 1.19 1.21 1.16 1.13 1.07 1.02
0.73 0.82 0.66 0.69 0.85 0.95 0.98 0.89 0.67 0.77 0.56 0.37 0.22 0.15 0.13 0.11 0.11 0.12 0.11 0.11 0.13 0.13 0.10 0.10 0.13 0.15 0.14 0.15 0.14 0.18 0.22 0.29 0.38 0.52 0.66 0.73 0.79 0.83 0.88 0.91 0.89 0.93 0.95 0.93
0.69 0.81 0.72 0.75 0.95 0.97 0.88 0.74 0.77 0.99 0.78 0.53 0.24 0.14 0.18 0.16 0.15 0.14 0.11 0.10 0.12 0.13 0.12 0.13 0.16 0.15 0.12 0.11 0.11 0.12 0.13 0.16 0.21 0.29 0.41 0.51 0.58 0.62 0.69 0.75 0.72 0.69 0.73 0.76
0.60 0.81 0.91 0.90 0.98 0.78 0.69 0.77 0.81 0.80 0.62 0.61 0.39 0.23 0.19 0.17 0.18 0.16 0.15 0.12 0.11 0.11 0.12 0.14 0.15 0.13 0.11 0.11 0.12 0.10 0.09 0.10 0.12 0.17 0.25 0.32 0.38 0.44 0.53 0.56 0.56 0.57 0.56 0.55
0.46 0.68 0.88 0.72 0.54 0.48 0.53 0.52 0.63 0.83 0.63 0.51 0.45 0.26 0.14 0.14 0.16 0.17 0.18 0.14 0.11 0.10 0.11 0.13 0.13 0.10 0.10 0.11 0.10 0.09 0.08 0.09 0.10 0.11 0.15 0.21 0.28 0.33 0.37 0.42 0.43 0.41 0.44 0.43
0.49 0.64 0.84 0.73 0.61 0.57 0.55 0.41 0.48 0.68 0.83 0.62 0.54 0.30 0.14 0.15 0.17 0.19 0.19 0.16 0.13 0.11 0.10 0.11 0.10 0.10 0.12 0.12 0.11 0.10 0.10 0.09 0.09 0.10 0.11 0.13 0.19 0.24 0.27 0.29 0.31 0.30 0.30 0.32
0.61 0.59 0.66 0.66 0.53 0.52 0.49 0.40 0.49 0.84 0.99 0.57 0.36 0.26 0.19 0.20 0.20 0.20 0.20 0.17 0.14 0.11 0.08 0.07 0.08 0.10 0.13 0.14 0.12 0.11 0.11 0.11 0.12 0.12 0.12 0.12 0.15 0.21 0.23 0.21 0.19 0.20 0.21 0.23
0.53 0.58 0.45 0.39 0.28 0.32 0.37 0.42 0.51 0.67 0.58 0.52 0.29 0.22 0.22 0.23 0.23 0.22 0.18 0.15 0.12 0.09 0.08 0.07 0.07 0.09 0.12 0.14 0.13 0.12 0.13 0.14 0.16 0.18 0.17 0.15 0.15 0.20 0.21 0.20 0.18 0.17 0.17 0.19
0.34 0.45 0.40 0.35 0.24 0.27 0.37 0.38 0.40 0.45 0.45 0.44 0.32 0.27 0.20 0.21 0.22 0.19 0.14 0.12 0.11 0.08 0.06 0.06 0.06 0.06 0.08 0.10 0.12 0.13 0.14 0.16 0.20 0.20 0.19 0.18 0.18 0.20 0.21 0.21 0.21 0.20 0.19 0.20
0.24 0.32 0.45 0.37 0.22 0.29 0.39 0.33 0.37 0.41 0.41 0.41 0.45 0.36 0.22 0.19 0.18 0.14 0.13 0.11 0.10 0.08 0.08 0.07 0.06 0.07 0.08 0.08 0.09 0.09 0.10 0.12 0.16 0.21 0.22 0.22 0.22 0.23 0.25 0.24 0.26 0.30 0.33 0.34
0.18 0.27 0.47 0.38 0.26 0.32 0.27 0.18 0.23 0.32 0.32 0.29 0.32 0.27 0.21 0.18 0.15 0.13 0.12 0.10 0.08 0.08 0.09 0.09 0.08 0.08 0.08 0.09 0.08 0.08 0.09 0.12 0.14 0.17 0.21 0.21 0.22 0.25 0.26 0.30 0.34 0.37 0.39 0.41
0.11 0.28 0.50 0.40 0.27 0.19 0.17 0.17 0.23 0.32 0.35 0.26 0.24 0.19 0.19 0.16 0.13 0.13 0.10 0.10 0.09 0.08 0.08 0.08 0.08 0.08 0.08 0.08 0.09 0.10 0.12 0.15 0.17 0.22 0.26 0.26 0.29 0.31 0.33 0.36 0.38 0.41 0.44 0.43
0.14 0.24 0.47 0.40 0.33 0.22 0.17 0.11 0.13 0.25 0.41 0.23 0.18 0.17 0.17 0.14 0.18 0.16 0.10 0.09 0.10 0.09 0.08 0.09 0.10 0.10 0.11 0.13 0.15 0.15 0.17 0.21 0.23 0.27 0.32 0.32 0.34 0.39 0.40 0.40 0.40 0.39 0.39 0.41
0.22 0.31 0.39 0.33 0.29 0.13 0.10 0.07 0.10 0.30 0.41 0.19 0.15 0.15 0.14 0.13 0.17 0.14 0.11 0.09 0.08 0.09 0.09 0.10 0.11 0.13 0.17 0.22 0.24 0.24 0.26 0.29 0.29 0.30 0.33 0.32 0.32 0.34 0.33 0.34 0.33 0.33 0.32 0.31
0.12 0.16 0.15 0.16 0.21 0.16 0.09 0.09 0.17 0.22 0.13 0.10 0.09 0.10 0.10 0.12 0.13 0.13 0.12 0.11 0.10 0.13 0.13 0.12 0.13 0.15 0.17 0.24 0.30 0.30 0.29 0.29 0.28 0.27 0.29 0.30 0.31 0.31 0.29 0.28 0.28 0.27 0.25 0.24
0.08 0.11 0.13 0.11 0.13 0.13 0.11 0.13 0.13 0.10 0.08 0.07 0.07 0.07 0.07 0.11 0.13 0.13 0.13 0.11 0.09 0.12 0.13 0.12 0.13 0.13 0.15 0.19 0.25 0.31 0.31 0.29 0.28 0.27 0.28 0.28 0.27 0.27 0.27 0.23 0.22 0.20 0.16 0.14
0.09 0.07 0.09 0.11 0.10 0.09 0.10 0.10 0.10 0.09 0.08 0.06 0.05 0.05 0.05 0.08 0.11 0.12 0.12 0.11 0.10 0.10 0.12 0.12 0.12 0.13 0.16 0.18 0.19 0.23 0.24 0.24 0.25 0.25 0.25 0.25 0.25 0.23 0.21 0.18 0.17 0.16 0.14 0.13
0.09 0.09 0.09 0.13 0.10 0.08 0.09 0.08 0.07 0.06 0.05 0.04 0.04 0.04 0.05 0.08 0.10 0.12 0.13 0.14 0.13 0.13 0.13 0.14 0.14 0.14 0.15 0.15 0.16 0.16 0.16 0.17 0.20 0.22 0.21 0.20 0.20 0.20 0.19 0.16 0.15 0.14 0.13 0.15
0.09 0.09 0.11 0.13 0.09 0.09 0.09 0.07 0.06 0.05 0.04 0.04 0.03 0.03 0.05 0.07 0.07 0.07 0.08 0.11 0.14 0.14 0.14 0.14 0.14 0.14 0.14 0.14 0.15 0.15 0.14 0.16 0.17 0.19 0.19 0.18 0.18 0.17 0.16 0.15 0.13 0.13 0.13 0.14